Flag for United Kingdom Weather past 2 weeks in Silverstone, England, United Kingdom

Now
37 °F

Chilly.


Feels Like: 34 °F
Forecast: 33 / 40 °F
Wind: 3 mph from Southwest

Location: Church Lawford

Current Time: Dec 26, 2014 at 12:24:04 AM

Latest Report: Dec 25, 2014 at 11:00 PM


Visibility: 10 mi

Pressure: 30.50 "Hg

Humidity: 91%

Dew point: 34 °F

Location of SilverstoneLocation

Historic Weather in Silverstone — Graph

°F

Silverstone temperature yesterday

Maximum temperature yesterday: 45 °F (at 2:00 PM)
Minimum temperature yesterday: 36 °F (at 2:00 AM)
Average temperature yesterday: 39 °F

Past Weeks' High & Low Weather Summary

 TemperatureHumidityPressure
High56 °F (Dec 18, 1:00 PM)100% (Dec 13, 10:00 AM)30.50 "Hg (Dec 13, 10:00 AM)
Low29 °F (Dec 13, 7:00 AM)63% (Dec 24, 3:00 PM)29.15 "Hg (Dec 12, 4:00 AM)
Average44 °F88%29.90 "Hg
* Reported Dec 10 11:00 PM — Dec 25 11:00 PM, Silverstone, Weather by CustomWeather, © 2014

Note: Actual official high and low records may vary slightly from our data, if they occured in-between our weather recording intervals... More about our weather records

Advertising

Silverstone weather history for previous 24 hours

 ConditionsComfort  
Time TempWeatherWind HumidityBarometerVisibility
11:00 PM
Dec 25
37 °FChilly.3 mph91%30.50 "Hg10 mi
10:00 PM38 °FChilly.6 mph89%30.49 "Hg11 mi
9:00 PM38 °FChilly.5 mph88%30.48 "Hg22 mi
8:00 PM39 °FChilly.8 mph86%30.47 "Hg19 mi
7:00 PM40 °FChilly.6 mph85%30.46 "Hg17 mi
6:00 PM39 °FChilly.6 mph88%30.45 "Hg16 mi
5:00 PM40 °FChilly.6 mph89%30.44 "Hg14 mi
4:00 PM40 °FQuite cool.5 mph87%30.42 "Hg11 mi
3:00 PM44 °FQuite cool.12 mph71%30.40 "Hg19 mi
2:00 PM45 °FQuite cool.9 mph75%30.39 "Hg1 mi
1:00 PM43 °FQuite cool.8 mph79%30.39 "Hg17 mi
12:00 PM42 °FQuite cool.7 mph81%30.39 "Hg19 mi
11:00 AM42 °FQuite cool.10 mph82%30.38 "Hg17 mi
10:00 AM39 °FChilly.9 mph86%30.36 "Hg19 mi
9:00 AM38 °FChilly.8 mph89%30.34 "Hg15 mi
8:00 AM38 °FChilly.13 mph89%30.31 "Hg14 mi
7:00 AM37 °FChilly.8 mph92%30.30 "Hg16 mi
5:00 AM37 °FChilly.8 mph91%30.27 "Hg16 mi
4:00 AM38 °FChilly.10 mph89%30.25 "Hg17 mi
3:00 AM37 °FChilly.7 mph90%30.25 "Hg17 mi
2:00 AM36 °FChilly.6 mph91%30.24 "Hg13 mi
1:00 AM37 °FChilly.5 mph90%30.23 "Hg9 mi
12:00 AM38 °FChilly.6 mph88%30.21 "Hg12 mi
Weather by CustomWeather, © 2014

See weather overviewHow to use our weather pages